CW3518 Weather Reports


time (UTC)temp
F
wind
direction
speed
knots
gust
knots
rain 1hr
in
rain 24hr
in
rain mn
in
humidity
%
barometer
mb
20260505175959 83 251 14.8 19.1 0.00 0.00 0.00 56 1004.9
20260505175500 83 225 15.6 20.9 0.00 0.00 0.00 56 1004.9
20260505175000 83 214 11.3 20.9 0.00 0.00 0.00 60 1005.0
20260505174459 83 230 12.2 18.2 0.00 0.00 0.00 64 1005.0
20260505173459 83 218 12.2 16.5 0.00 0.00 0.00 65 1005.1
20260505173000 81 213 16.5 20.0 0.00 0.00 0.00 65 1004.9
20260505172000 81 230 12.2 20.0 0.00 0.00 0.00 66 1004.8
20260505170459 79 198 9.6 15.6 0.00 0.00 0.00 71 1004.8
20260505170030 79 192 6.1 17.4 0.00 0.00 0.00 71 1004.9
20260505165459 78 186 7.8 17.4 0.00 0.00 0.00 72 1004.9
20260505164959 78 191 6.1 15.6 0.00 0.00 0.00 74 1005.0
20260505164459 77 213 10.4 15.6 0.00 0.00 0.00 74 1004.9
20260505163959 77 205 9.6 15.6 0.00 0.00 0.00 74 1004.8
20260505163459 76 207 13.0 13.0 0.00 0.00 0.00 74 1004.7
20260505162959 76 198 11.3 13.0 0.00 0.00 0.00 75 1004.7
20260505162530 76 185 8.7 13.9 0.00 0.00 0.00 76 1004.7
20260505161529 76 210 7.8 13.9 0.00 0.00 0.00 76 1004.6
20260505161005 76 212 9.6 15.6 0.00 0.00 0.00 77 1004.8
20260505160529 76 207 9.6 15.6 0.00 0.00 0.00 76 1004.7
20260505152959 75 222 11.3 21.7 0.00 0.00 0.00 76 1004.4
20260505152501 75 213 11.3 21.7 0.00 0.00 0.00 76 1004.4
20260505151501 75 196 11.3 14.8 0.00 0.00 0.00 76 1004.2
20260505150959 75 224 14.8 14.8 0.00 0.00 0.00 76 1004.2
20260505150459 75 211 10.4 18.2 0.00 0.00 0.00 78 1004.3
20260505140459 72 205 9.6 13.9 0.00 0.00 0.00 83 1004.1
20260505125000 69 190 7.8 9.6 0.00 0.00 0.00 90 1004.1
20260505124459 69 188 7.8 9.6 0.00 0.00 0.00 90 1004.1
20260505123500 69 194 7.0 9.6 0.00 0.00 0.00 91 1004.0
20260505122459 69 186 6.1 10.4 0.00 0.00 0.00 92 1003.7
20260505121500 68 192 7.0 12.2 0.00 0.00 0.00 92 1003.4
20260505121001 68 199 8.7 12.2 0.00 0.00 0.00 92 1003.3
20260505120501 68 193 8.7 13.0 0.00 0.00 0.00 92 1003.3
20260505120031 68 198 7.8 13.0 0.00 0.00 0.00 92 1003.3
20260505115531 68 182 7.8 11.3 0.00 0.00 0.00 92 1003.4
20260505115001 68 192 7.8 11.3 0.00 0.00 0.00 92 1003.4
20260505114500 68 212 11.3 12.2 0.00 0.00 0.00 92 1003.4
20260505114000 68 193 8.7 12.2 0.00 0.00 0.00 92 1003.3
20260505113530 68 199 6.1 10.4 0.00 0.00 0.00 92 1003.3
20260505112459 68 200 9.6 11.3 0.00 0.00 0.00 92 1003.3
20260505111959 68 190 6.1 12.2 0.00 0.00 0.00 92 1003.4
20260505111459 68 204 8.7 12.2 0.00 0.00 0.00 92 1003.4
20260505111000 68 208 12.2 12.2 0.00 0.00 0.00 92 1003.3
20260505110500 68 203 9.6 11.3 0.00 0.00 0.00 92 1003.4
20260505102000 69 207 11.3 16.5 0.00 0.00 0.00 89 1003.3
20260505101500 69 208 13.9 16.5 0.00 0.00 0.00 89 1003.3
20260505101000 69 208 7.8 14.8 0.00 0.00 0.00 89 1003.4
20260505095500 69 194 10.4 14.8 0.00 0.00 0.00 88 1003.4
20260505094459 69 195 10.4 15.6 0.00 0.00 0.00 88 1003.4
20260505094000 70 201 7.8 15.6 0.00 0.00 0.00 87 1003.5
20260505092500 70 185 10.4 13.0 0.00 0.00 0.00 86 1003.2
20260505092000 70 196 8.7 13.0 0.00 0.00 0.00 86 1003.3
20260505091500 70 179 9.6 13.9 0.00 0.00 0.00 85 1003.3
20260505091000 70 194 12.2 16.5 0.00 0.00 0.00 85 1003.4
20260505090500 70 207 13.9 16.5 0.00 0.00 0.00 84 1003.5
20260505090000 70 198 8.7 15.6 0.00 0.00 0.00 84 1003.6
20260505085500 71 209 13.9 15.6 0.00 0.00 0.00 83 1003.5
20260505085000 71 195 11.3 15.6 0.00 0.00 0.00 83 1003.5
20260505084530 71 201 11.3 15.6 0.00 0.00 0.00 83 1003.4
20260505084000 71 189 10.4 15.6 0.00 0.00 0.00 82 1003.5
20260505083500 71 197 10.4 17.4 0.00 0.00 0.00 81 1003.6
20260505083000 71 186 12.2 18.2 0.00 0.00 0.00 81 1003.4
20260505082500 71 211 17.4 18.2 0.00 0.00 0.00 80 1003.4
20260505082000 71 195 12.2 17.4 0.00 0.00 0.00 80 1003.5
20260505081500 71 195 9.6 17.4 0.00 0.00 0.00 80 1003.6
20260505081000 71 207 10.4 17.4 0.00 0.00 0.00 80 1003.6
20260505080500 72 198 9.6 17.4 0.00 0.00 0.00 79 1003.5
20260505080000 71 202 13.0 13.9 0.00 0.00 0.00 79 1003.5
20260505075500 72 181 11.3 15.6 0.00 0.00 0.00 79 1003.5
20260505074500 72 201 12.2 14.8 0.00 0.00 0.00 78 1003.8
20260505074000 72 208 10.4 13.9 0.00 0.00 0.00 78 1003.9
20260505073500 72 185 8.7 13.9 0.00 0.00 0.00 78 1004.0
20260505073000 72 199 9.6 13.0 0.00 0.00 0.00 78 1004.1
20260505072500 72 202 11.3 13.9 0.00 0.00 0.00 77 1004.2
20260505072000 73 187 7.8 15.6 0.00 0.00 0.00 77 1004.5
20260505071500 73 195 11.3 16.5 0.00 0.00 0.00 76 1004.5
20260505071000 73 207 13.0 16.5 0.00 0.00 0.00 76 1004.6
20260505070000 73 209 13.0 15.6 0.00 0.00 0.00 75 1004.6
20260505065500 73 203 11.3 15.6 0.00 0.00 0.00 75 1004.7
20260505065000 73 203 14.8 17.4 0.00 0.00 0.00 74 1004.6
20260505064500 73 200 10.4 17.4 0.00 0.00 0.00 74 1004.7
20260505064000 73 193 11.3 15.6 0.00 0.00 0.00 74 1004.7
20260505063500 74 195 11.3 15.6 0.00 0.00 0.00 74 1004.8
20260505063000 74 196 14.8 16.5 0.00 0.00 0.00 73 1004.7
20260505062500 74 208 12.2 18.2 0.00 0.00 0.00 73 1004.7
20260505062000 74 199 9.6 18.2 0.00 0.00 0.00 73 1004.7
20260505061500 74 197 13.9 15.6 0.00 0.00 0.00 72 1004.8
20260505060500 74 189 13.0 22.6 0.00 0.00 0.00 72 1004.9
20260505060000 75 194 14.8 22.6 0.00 0.00 0.00 71 1005.0
20260505055500 75 205 13.0 14.8 0.00 0.00 0.00 71 1005.1
20260505055000 75 176 11.3 16.5 0.00 0.00 0.00 72 1005.0
20260505054000 75 190 15.6 16.5 0.00 0.00 0.00 71 1004.9
20260505053000 75 196 7.8 16.5 0.00 0.00 0.00 72 1005.0
20260505052000 75 181 10.4 15.6 0.00 0.00 0.00 72 1005.0
20260505051530 74 175 12.2 13.9 0.00 0.00 0.00 73 1005.0
20260505051001 74 192 13.9 13.9 0.00 0.00 0.00 73 1005.0
20260505050500 74 175 12.2 12.2 0.00 0.00 0.00 74 1005.1
20260505041500 73 170 8.7 15.6 0.00 0.00 0.00 75 1005.4
20260505040000 73 165 9.6 12.2 0.00 0.00 0.00 75 1005.4
20260505035500 73 169 9.6 11.3 0.00 0.00 0.00 75 1005.4
20260505035000 73 180 7.0 12.2 0.00 0.00 0.00 75 1005.4
20260505034500 73 165 7.8 13.0 0.00 0.00 0.00 74 1005.5
20260505033500 74 177 11.3 14.8 0.00 0.00 0.00 74 1005.3
20260505033000 74 166 11.3 15.6 0.00 0.00 0.00 73 1005.3
20260505032531 74 183 9.6 17.4 0.00 0.00 0.00 73 1005.2
20260505032000 74 160 10.4 17.4 0.00 0.00 0.00 73 1005.2
20260505031502 74 154 13.9 16.5 0.00 0.00 0.00 73 1005.2
20260505031000 73 166 8.7 14.8 0.00 0.00 0.00 74 1005.2
20260505030500 73 0 0.0 14.8 0.00 0.00 0.00 74 1005.4
20260505025500 73 158 11.3 11.3 0.00 0.00 0.00 74 1005.5
20260505025000 73 162 7.8 11.3 0.00 0.00 0.00 75 1005.5
20260505024501 73 145 9.6 13.0 0.00 0.00 0.00 75 1005.5
20260505024000 73 0 0.0 13.0 0.00 0.00 0.00 74 1005.5
20260505023500 73 0 0.0 12.2 0.00 0.00 0.00 74 1005.5
20260505023001 73 0 0.0 12.2 0.00 0.00 0.00 74 1005.4
20260505022500 73 0 0.0 13.0 0.00 0.00 0.00 74 1005.4
20260505022000 73 159 13.0 14.8 0.00 0.00 0.00 74 1005.4
20260505021000 73 0 0.0 12.2 0.00 0.00 0.00 74 1005.5
20260505020500 73 0 0.0 10.4 0.00 0.00 0.00 74 1005.6
20260505020000 74 155 9.6 11.3 0.00 0.00 0.00 73 1005.6
20260505015000 74 0 0.0 13.0 0.00 0.00 0.00 72 1005.3
20260505014500 74 0 0.0 13.0 0.00 0.00 0.00 71 1005.2
20260505014000 75 162 8.7 13.0 0.00 0.00 0.00 71 1005.3
20260505013500 75 175 9.6 13.0 0.00 0.00 0.00 71 1005.2
20260505013000 75 166 7.0 11.3 0.00 0.00 0.00 71 1005.3
20260505012501 75 171 8.7 13.0 0.00 0.00 0.00 70 1005.2
20260505012001 75 165 9.6 13.0 0.00 0.00 0.00 70 1005.2
20260505011500 75 171 7.8 11.3 0.00 0.00 0.00 69 1005.3
20260505011000 75 169 10.4 11.3 0.00 0.00 0.00 69 1005.3
20260505010500 75 171 9.6 13.0 0.00 0.00 0.00 68 1005.3
20260505010000 76 163 9.6 13.0 0.00 0.00 0.00 68 1005.3
20260505005001 76 177 9.6 14.8 0.00 0.00 0.00 66 1005.4
20260505004001 77 190 8.7 12.2 0.00 0.00 0.00 65 1005.4
20260505003500 77 175 8.7 13.0 0.00 0.00 0.00 64 1005.4
20260505003000 77 180 9.6 13.0 0.00 0.00 0.00 63 1005.4
20260505002000 78 179 7.0 13.0 0.00 0.00 0.00 63 1005.3
20260505001500 78 207 9.6 14.8 0.00 0.00 0.00 62 1005.4
20260505001000 78 170 12.2 14.8 0.00 0.00 0.00 61 1005.4
20260505000500 78 183 11.3 14.8 0.00 0.00 0.00 61 1005.4
20260505000000 78 180 13.0 16.5 0.00 0.00 0.00 60 1005.4
20260504235500 79 176 14.8 16.5 0.00 0.00 0.00 59 1005.5
20260504235000 79 205 13.0 19.1 0.00 0.00 0.00 59 1005.4
20260504234500 79 181 12.2 19.1 0.00 0.00 0.00 59 1005.3
20260504234000 79 187 11.3 17.4 0.00 0.00 0.00 59 1005.5
20260504233501 79 183 11.3 16.5 0.00 0.00 0.00 59 1005.5
20260504233000 79 192 9.6 17.4 0.00 0.00 0.00 59 1005.7
20260504232500 79 199 14.8 17.4 0.00 0.00 0.00 58 1005.6
20260504231531 80 182 11.3 19.1 0.00 0.00 0.00 59 1005.6
20260504230500 80 180 13.9 16.5 0.00 0.00 0.00 57 1005.4
20260504230000 80 183 10.4 18.2 0.00 0.00 0.00 57 1005.6
20260504225500 80 192 10.4 24.3 0.00 0.00 0.00 57 1005.7
20260504224500 82 199 15.6 20.0 0.00 0.00 0.00 55 1005.8
20260504224000 81 196 13.0 20.9 0.00 0.00 0.00 55 1005.7
20260504223501 82 203 19.1 20.9 0.00 0.00 0.00 54 1005.7
20260504223000 82 190 13.0 20.0 0.00 0.00 0.00 55 1005.9
20260504222500 81 193 12.2 20.0 0.00 0.00 0.00 54 1005.9
20260504222000 81 198 12.2 21.7 0.00 0.00 0.00 55 1006.1
20260504221500 81 188 14.8 21.7 0.00 0.00 0.00 54 1005.9
20260504221000 82 187 14.8 21.7 0.00 0.00 0.00 54 1005.9
20260504220030 82 172 15.6 19.1 0.00 0.00 0.00 54 1006.1
20260504215500 82 194 14.8 19.1 0.00 0.00 0.00 53 1006.0
20260504215000 82 197 17.4 20.0 0.00 0.00 0.00 53 1006.1
20260504214500 81 161 18.2 21.7 0.00 0.00 0.00 53 1006.1
20260504214000 82 178 21.7 21.7 0.00 0.00 0.00 53 1006.1
20260504213530 82 171 9.6 18.2 0.00 0.00 0.00 55 1006.5
20260504213000 82 177 18.2 18.2 0.00 0.00 0.00 54 1006.4
20260504212500 81 189 10.4 18.2 0.00 0.00 0.00 55 1006.7
20260504212000 81 180 13.0 18.2 0.00 0.00 0.00 55 1006.8
20260504210500 80 206 13.9 19.1 0.00 0.00 0.00 55 1007.0
20260504210031 81 181 13.0 19.1 0.00 0.00 0.00 55 1007.1
20260504205502 81 185 11.3 18.2 0.00 0.00 0.00 55 1007.1
20260504205030 80 164 16.5 17.4 0.00 0.00 0.00 55 1007.2
20260504204500 80 188 12.2 20.0 0.00 0.00 0.00 55 1007.3
20260504204031 80 201 15.6 20.0 0.00 0.00 0.00 55 1007.5
20260504203500 80 197 13.0 20.0 0.00 0.00 0.00 56 1007.6
20260504202500 80 178 11.3 19.1 0.00 0.00 0.00 55 1007.9
20260504202000 80 209 15.6 19.1 0.00 0.00 0.00 55 1007.8
20260504201500 80 198 19.1 20.9 0.00 0.00 0.00 55 1007.8
20260504201030 80 173 10.4 20.9 0.00 0.00 0.00 55 1008.0
20260504200000 80 192 12.2 23.5 0.00 0.00 0.00 56 1008.1
20260504195500 79 209 18.2 20.9 0.00 0.00 0.00 56 1008.1
20260504195000 80 194 13.9 19.1 0.00 0.00 0.00 54 1008.5
20260504194000 79 221 19.1 20.0 0.00 0.00 0.00 56 1008.6
20260504193530 78 189 9.6 20.0 0.00 0.00 0.00 56 1008.7
20260504193030 79 212 13.0 24.3 0.00 0.00 0.00 56 1008.7
20260504192530 79 218 12.2 24.3 0.00 0.00 0.00 57 1009.0
20260504192000 78 199 10.4 18.2 0.00 0.00 0.00 56 1008.8
20260504191500 78 194 13.9 18.2 0.00 0.00 0.00 57 1008.8
20260504191030 78 192 8.7 21.7 0.00 0.00 0.00 58 1008.9
20260504190531 78 166 16.5 21.7 0.00 0.00 0.00 56 1009.0
20260504190001 77 165 11.3 17.4 0.00 0.00 0.00 58 1009.2
20260504185500 77 165 17.4 21.7 0.00 0.00 0.00 56 1009.3
20260504185030 78 186 9.6 26.1 0.00 0.00 0.00 58 1009.6
20260504184500 77 179 10.4 26.1 0.00 0.00 0.00 58 1009.4
20260504184000 77 184 13.9 19.1 0.00 0.00 0.00 56 1009.4
20260504183501 77 199 13.9 19.1 0.00 0.00 0.00 57 1009.6
20260504183001 77 170 8.7 23.5 0.00 0.00 0.00 58 1009.8
20260504182500 76 210 12.2 23.5 0.00 0.00 0.00 59 1009.8
20260504182000 77 206 13.0 22.6 0.00 0.00 0.00 58 1009.8
20260504181500 76 193 16.5 26.9 0.00 0.00 0.00 57 1009.9
20260504181002 76 220 25.2 26.9 0.00 0.00 0.00 58 1009.9
20260504180501 75 196 12.2 24.3 0.00 0.00 0.00 58 1010.1